TimeCDT,TemperatureF,Dew PointF,Humidity,Sea Level PressureIn,VisibilityMPH,Wind Direction,Wind SpeedMPH,Gust SpeedMPH,PrecipitationIn,Events,Conditions,WindDirDegrees,DateUTC
12:53 AM,32.0,17.1,54,30.12,10.0,Calm,Calm,-,N/A,,Clear,0,2013-03-19 05:53:00
1:53 AM,30.0,18.0,61,30.12,10.0,Calm,Calm,-,N/A,,Clear,0,2013-03-19 06:53:00
2:53 AM,30.0,18.0,61,30.12,10.0,Calm,Calm,-,N/A,,Clear,0,2013-03-19 07:53:00
3:53 AM,30.9,19.0,61,30.13,10.0,Calm,Calm,-,N/A,,Overcast,0,2013-03-19 08:53:00
4:53 AM,30.0,19.9,66,30.12,10.0,Calm,Calm,-,N/A,,Overcast,0,2013-03-19 09:53:00
5:53 AM,30.9,24.1,76,30.14,10.0,Calm,Calm,-,N/A,,Overcast,0,2013-03-19 10:53:00
6:53 AM,33.1,21.9,64,30.16,10.0,Calm,Calm,-,N/A,,Overcast,0,2013-03-19 11:53:00
7:53 AM,32.0,25.0,75,30.18,10.0,Calm,Calm,-,N/A,,Overcast,0,2013-03-19 12:53:00
8:53 AM,34.0,24.1,67,30.20,10.0,Calm,Calm,-,N/A,,Overcast,0,2013-03-19 13:53:00
9:53 AM,37.0,21.0,52,30.22,10.0,SSW,4.6,-,N/A,,Overcast,200,2013-03-19 14:53:00
10:53 AM,36.0,25.0,64,30.26,3.0,Calm,Calm,-,0.00,Snow,Light Snow,0,2013-03-19 15:53:00
11:01 AM,35.1,26.1,70,30.24,3.0,Variable,3.5,-,0.00,Snow,Light Snow,0,2013-03-19 16:01:00
11:12 AM,35.1,28.0,76,30.24,1.0,SSW,5.8,-,0.00,Snow,Light Snow,200,2013-03-19 16:12:00
11:44 AM,35.1,28.9,78,30.25,2.5,Calm,Calm,-,0.00,Snow,Light Snow,0,2013-03-19 16:44:00
11:53 AM,34.0,28.9,82,30.27,0.8,East,3.5,-,0.01,Snow,Light Snow,90,2013-03-19 16:53:00
12:03 PM,34.0,30.0,85,30.25,0.5,East,3.5,-,0.00,Fog-Snow,Snow,90,2013-03-19 17:03:00
12:12 PM,34.0,30.9,89,30.25,0.2,East,3.5,-,0.01,Fog-Snow,Snow,90,2013-03-19 17:12:00
12:20 PM,34.0,30.9,89,30.25,0.2,Calm,Calm,-,0.02,Fog-Snow,Snow,0,2013-03-19 17:20:00
12:53 PM,33.1,30.9,92,30.29,0.2,Calm,Calm,-,0.05,Fog-Snow,Snow,0,2013-03-19 17:53:00
1:03 PM,34.0,30.9,89,30.26,0.2,Calm,Calm,-,0.01,Fog-Snow,Snow,0,2013-03-19 18:03:00
1:53 PM,34.0,32.0,92,30.29,0.2,Calm,Calm,-,0.07,Fog-Snow,Snow,0,2013-03-19 18:53:00
2:04 PM,34.0,30.9,89,30.26,0.2,Calm,Calm,-,0.00,Fog-Snow,Light Snow,0,2013-03-19 19:04:00
2:53 PM,34.0,32.0,92,30.27,0.2,Calm,Calm,-,0.03,Fog-Snow,Light Snow,0,2013-03-19 19:53:00
3:02 PM,34.0,32.0,92,30.25,1.0,South,3.5,-,0.00,Snow,Light Snow,180,2013-03-19 20:02:00
3:14 PM,34.0,32.0,92,30.25,2.0,SSW,3.5,-,0.00,Snow,Light Snow,200,2013-03-19 20:14:00
3:32 PM,35.1,33.1,92,30.24,4.0,SSW,4.6,-,0.01,Rain,Light Rain,200,2013-03-19 20:32:00
3:47 PM,35.6,33.8,93,30.25,5.0,Calm,Calm,-,0.01,Rain,Light Rain,0,2013-03-19 20:47:00
3:53 PM,36.0,33.1,89,30.27,5.0,SW,4.6,-,0.01,,Overcast,230,2013-03-19 20:53:00
4:53 PM,39.9,36.0,86,30.23,10.0,South,4.6,-,0.01,,Overcast,170,2013-03-19 21:53:00
5:53 PM,42.1,36.0,79,30.23,10.0,SW,8.1,-,N/A,,Overcast,220,2013-03-19 22:53:00
6:53 PM,43.0,37.0,80,30.23,10.0,Calm,Calm,-,N/A,,Clear,0,2013-03-19 23:53:00
7:53 PM,39.9,35.1,83,30.25,10.0,Calm,Calm,-,N/A,,Clear,0,2013-03-20 00:53:00
8:51 PM,35.6,33.8,93,30.24,1.5,NNE,3.5,-,N/A,,Clear,20,2013-03-20 01:51:00
8:53 PM,35.1,34.0,96,30.27,0.8,Calm,Calm,-,N/A,,Clear,0,2013-03-20 01:53:00
9:05 PM,36.0,34.0,93,30.24,2.0,Calm,Calm,-,N/A,,Clear,0,2013-03-20 02:05:00
9:14 PM,37.0,35.1,93,30.24,4.0,Calm,Calm,-,N/A,,Clear,0,2013-03-20 02:14:00
9:28 PM,35.1,34.0,96,30.25,0.8,Calm,Calm,-,N/A,,Mist,0,2013-03-20 02:28:00
9:35 PM,32.0,30.0,92,30.25,0.2,NNE,4.6,-,N/A,Fog,Fog,30,2013-03-20 02:35:00
9:53 PM,34.0,32.0,92,30.28,0.2,Calm,Calm,-,N/A,Fog,Fog,0,2013-03-20 02:53:00
10:06 PM,35.1,33.1,92,30.26,1.0,South,3.5,-,N/A,,Mostly Cloudy,170,2013-03-20 03:06:00
10:11 PM,34.0,33.1,96,30.26,0.5,South,5.8,-,N/A,Fog,Fog,180,2013-03-20 03:11:00
10:20 PM,35.1,34.0,96,30.26,1.0,WSW,3.5,-,N/A,,Overcast,250,2013-03-20 03:20:00
10:24 PM,36.0,35.1,97,30.26,4.0,SW,4.6,-,N/A,,Mostly Cloudy,230,2013-03-20 03:24:00
10:53 PM,36.0,32.0,86,30.27,10.0,West,5.8,-,N/A,,Scattered Clouds,260,2013-03-20 03:53:00
11:53 PM,33.1,30.0,89,30.28,10.0,Calm,Calm,-,N/A,,Clear,0,2013-03-20 04:53:00